Location: Arrien
(43.3167°N, 0.1500°W)
Time: 05:00:51
(UTC+00:00)

H-2A R/B - Pass Details

Date: 15 October 2021
Orbit: 577 x 654 km, 98.5° (Epoch: 02 December)

Event Time Altitude Azimuth Distance (km) Brightness Sun altitude
Rises 19:34:31 0° 5° (N) 2,803 5.5 -25.6°
Reaches altitude 10° 19:36:47 10° 357° (N) 1,900 4.7 -26.0°
Maximum altitude 19:40:33 36° 290° (WNW) 935 3.4 -26.7°
Drops below altitude 10° 19:44:18 10° 224° (SW) 1,901 4.9 -27.3°
Sets 19:46:34 0° 216° (SW) 2,805 5.7 -27.7°
